This demonstration page uses our WeatherBlox Daily Observations layout. Learn more.

Left ArrowRight Arrow

Hourly Observations for March 7, 2020

Temp ( °F °C ) Dew Point ( °F °C ) Humidity (%) Winds ( mph kmh ) Pressure ( in mb ) Visibility ( mi km ) Precip ( " mm )
12:51 am 00:51 Clear 54 12.2 33 0.6 45 45 SE 7 11 30.00 1016 10 16 0.00 0.00
1:51 am 01:51 Clear 56 13.3 32 0 40 40 ESE 8 13 30.00 1016 10 16 0.00 0.00
2:51 am 02:51 Clear 54 12.2 33 0.6 45 45 E 6 9 29.98 1015 10 16 0.00 0.00
3:51 am 03:51 Clear 52 11.1 33 0.6 49 49 E 7 11 29.98 1015 10 16 0.00 0.00
4:51 am 04:51 Clear 51 10.6 32 0 48 48 SSE 7 11 29.99 1016 10 16 0.00 0.00
5:51 am 05:51 Mostly Clear 51 10.6 33 0.6 50 50 SE 9 15 30.00 1016 10 16 0.00 0.00
6:51 am 06:51 Sunny 53 11.7 33 0.6 47 47 SE 9 15 30.01 1016 10 16 0.00 0.00
7:51 am 07:51 Mostly Cloudy 55 12.8 34 1.1 45 45 ESE 12 19 30.01 1016 10 16 0.00 0.00
8:51 am 08:51 Sunny 61 16.1 34 1.1 36 36 SE 12 19 30.02 1017 10 16 0.00 0.00
9:51 am 09:51 Sunny 65 18.3 35 1.7 33 33 ESE 13 20 30.01 1016 10 16 0.00 0.00
10:51 am 10:51 Sunny 69 20.6 37 2.8 31 31 SE 10 17 29.98 1015 10 16 0.00 0.00
11:51 am 11:51 Sunny 73 22.8 37 2.8 27 27 ESE 12 19 29.94 1014 10 16 0.00 0.00
12:51 pm 12:51 Sunny 76 24.4 35 1.7 23 23 SE 10 17 29.90 1013 10 16 0.00 0.00
1:51 pm 13:51 Sunny 77 25 33 0.6 20 20 SE 14 22 29.84 1011 10 16 0.00 0.00
2:51 pm 14:51 Sunny 79 26.1 33 0.6 19 19 SE 10 17 29.80 1009 10 16 0.00 0.00
3:51 pm 15:51 Sunny 80 26.7 33 0.6 18 18 SSE 15 24 29.78 1009 10 16 0.00 0.00
4:51 pm 16:51 Sunny 80 26.7 31 -0.6 17 17 S 13 20 29.76 1008 10 16 0.00 0.00
5:51 pm 17:51 Sunny 78 25.6 32 0 19 19 NNW 7 11 29.76 1008 10 16 0.00 0.00
6:51 pm 18:51 Clear 71 21.7 33 0.6 25 25 Calm 29.79 1009 10 16 0.00 0.00
7:51 pm 19:51 Clear 68 20 34 1.1 28 28 NNW 6 9 29.81 1010 10 16 0.00 0.00
8:51 pm 20:51 Clear 66 18.9 36 2.2 33 33 N 9 15 29.82 1010 10 16 0.00 0.00
9:51 pm 21:51 Partly Cloudy 67 19.4 35 1.7 31 31 N 7 11 29.83 1010 10 16 0.00 0.00
10:51 pm 22:51 Clear 70 21.1 34 1.1 27 27 NNE 8 13 29.82 1010 10 16 0.00 0.00
11:51 pm 23:51 Clear 68 20 35 1.7 30 30 NNE 8 13 29.80 1009 10 16 0.00 0.00

Powered by AerisWeather